MTI 1 26102U 00014A 21018.68743860 .00004854 00000-0 65326-4 0 9997 2 26102 97.4809 277.5328 0007625 140.3589 219.8228 15.58365314158001 TAURUS R/B 1 26103U 00014B 21018.85166722 .00000379 00000-0 25548-4 0 9993 2 26103 97.3047 328.5543 0030006 47.9789 312.3989 15.11924565145102